Weather History for Monett, MO

Change the Weather History Date:

Thursday, May 23, 2013

  Actual Average (KJLN) Record (KJLN)
Temperature  
Mean Temperature 60 °F 69 °F  
Max Temperature 69 °F 79 °F 92 °F (1996)
Min Temperature 51 °F 58 °F 41 °F (1963)
Degree Days  
Heating Degree Days 5 1  
Month to date heating degree days 58  
Since 1 July heating degree days 4061  
Cooling Degree Days 0 5  
Month to date cooling degree days 79  
Year to date cooling degree days 133  
Growing Degree Days 10 (Base 50)    
Moisture  
Dew Point 54 °F    
Average Humidity 78    
Maximum Humidity 100    
Minimum Humidity 60    
Precipitation  
Precipitation 0.00 in 0.17 in 1.83 in (2011)
Month to date precipitation 4.30  
Year to date precipitation 16.54  
Sea Level Pressure  
Sea Level Pressure 30.08 in    
Wind  
Wind Speed 4 mph (North)    
Max Wind Speed 9 mph    
Max Gust Speed -    
Visibility 10 miles    
Events      
T = Trace of Precipitation, MM = Missing Value Source: NWS Daily Summary

Daily Weather History Graph

Daily Weather History Graph

Search for Another Location

Airport:

Trip Planner

Search our weather history database for the weather conditions in past years. The results will help you decide how hot, cold, wet, or windy it might be!

Date:

Astronomy

May. 23, 2013 Rise Set
Actual Time 6:02 AM CDT 8:23 PM CDT
Civil Twilight 5:32 AM CDT 8:53 PM CDT
Nautical Twilight 4:56 AM CDT 9:29 PM CDT
Astronomical Twilight 4:16 AM CDT 10:10 PM CDT
Moon 6:58 PM CDT (5/23) 4:45 AM CDT (5/23)
Length of Visible Light 15h 20m
Length of Day
14h 21m
Waxing Gibbous, 97% of the Moon is Illuminated
May 23
Waxing Gibbous
May 24
Full
May 31
Last Quarter
Jun 8
New
Jun 16
First Quarter

Hourly Weather History & Observations

Time (CDT) Temp. Dew Point Humidity Pressure Visibility Wind Dir Wind Speed Gust Speed Precip Events Conditions
12:15 AM 59.0 °F 55.4 °F 88% 29.96 in 10.0 mi Calm Calm - N/A   Clear
12:35 AM 57.2 °F 55.4 °F 94% 29.96 in 10.0 mi South 3.5 mph - N/A   Clear
12:55 AM 55.4 °F 53.6 °F 94% 29.96 in 10.0 mi Calm Calm - N/A   Clear
1:15 AM 55.4 °F 55.4 °F 100% 29.96 in 10.0 mi Calm Calm - N/A   Clear
1:35 AM 55.4 °F 55.4 °F 100% 29.96 in 10.0 mi Calm Calm - N/A   Clear
1:55 AM 55.4 °F 55.4 °F 100% 29.96 in 10.0 mi Calm Calm - N/A   Clear
2:15 AM 55.4 °F 53.6 °F 94% 29.96 in 10.0 mi Calm Calm - N/A   Clear
2:35 AM 53.6 °F 53.6 °F 100% 29.96 in 10.0 mi Calm Calm - N/A   Clear
2:55 AM 53.6 °F 53.6 °F 100% 29.96 in 10.0 mi Calm Calm - N/A   Clear
3:15 AM 53.6 °F 53.6 °F 100% 29.96 in 10.0 mi Calm Calm - N/A   Clear
3:35 AM 55.4 °F 53.6 °F 94% 29.96 in 10.0 mi Calm Calm - N/A   Clear
3:55 AM 53.6 °F 51.8 °F 94% 29.98 in 10.0 mi SSW 3.5 mph - N/A   Clear
4:15 AM 53.6 °F 51.8 °F 94% 29.99 in 10.0 mi Calm Calm - N/A   Clear
4:35 AM 53.6 °F 51.8 °F 94% 29.99 in 10.0 mi Calm Calm - N/A   Clear
4:55 AM 51.8 °F 51.8 °F 100% 29.99 in 10.0 mi NE 4.6 mph - N/A   Clear
5:15 AM 51.8 °F 51.8 °F 100% 30.00 in 10.0 mi SSW 4.6 mph - N/A   Clear
5:35 AM 51.8 °F 51.8 °F 100% 30.01 in 10.0 mi SSW 3.5 mph - N/A   Clear
5:55 AM 51.8 °F 51.8 °F 100% 30.02 in 10.0 mi Calm Calm - N/A   Clear
6:15 AM 51.8 °F 51.8 °F 100% 30.03 in 10.0 mi NNW 4.6 mph - N/A   Clear
6:35 AM 51.8 °F 51.8 °F 100% 30.03 in 10.0 mi North 5.8 mph - N/A   Clear
6:55 AM 53.6 °F 51.8 °F 94% 30.04 in 10.0 mi North 4.6 mph - N/A   Clear
7:15 AM 55.4 °F 51.8 °F 88% 30.05 in 10.0 mi North 5.8 mph - N/A   Clear
7:35 AM 57.2 °F 51.8 °F 82% 30.05 in 10.0 mi North 8.1 mph - N/A   Clear
7:55 AM 59.0 °F 51.8 °F 77% 30.05 in 10.0 mi NNE 9.2 mph - N/A   Clear
8:15 AM 59.0 °F 51.8 °F 77% 30.05 in 10.0 mi NNE 5.8 mph - N/A   Clear
8:35 AM 60.8 °F 51.8 °F 72% 30.09 in 10.0 mi North 5.8 mph - N/A   Clear
8:55 AM 60.8 °F 51.8 °F 72% 30.12 in 10.0 mi North 5.8 mph - N/A   Clear
9:15 AM 60.8 °F 51.8 °F 72% 30.12 in 10.0 mi North 8.1 mph - N/A   Clear
9:35 AM 62.6 °F 51.8 °F 68% 30.12 in 10.0 mi North 8.1 mph - N/A   Clear
9:55 AM 62.6 °F 51.8 °F 68% 30.12 in 10.0 mi North 5.8 mph - N/A   Clear
10:15 AM 62.6 °F 53.6 °F 72% 30.12 in 10.0 mi NNW 4.6 mph - N/A   Clear
10:35 AM 64.4 °F 53.6 °F 68% 30.12 in 10.0 mi North 6.9 mph - N/A   Clear
10:55 AM 64.4 °F 53.6 °F 68% 30.11 in 10.0 mi North 5.8 mph - N/A   Clear
11:15 AM 66.2 °F 53.6 °F 64% 30.12 in 10.0 mi North 6.9 mph - N/A   Clear
11:35 AM 68.0 °F 53.6 °F 60% 30.12 in 10.0 mi NW 8.1 mph - N/A   Clear
11:55 AM 68.0 °F 55.4 °F 64% 30.13 in 10.0 mi NW 6.9 mph - N/A   Clear
12:15 PM 68.0 °F 55.4 °F 64% 30.13 in 10.0 mi NW 6.9 mph - N/A   Clear
12:35 PM 69.8 °F 55.4 °F 60% 30.13 in 10.0 mi NNW 4.6 mph - N/A   Clear
12:55 PM 69.8 °F 55.4 °F 60% 30.12 in 10.0 mi NW 9.2 mph - N/A   Clear
1:15 PM 69.8 °F 57.2 °F 64% 30.12 in 10.0 mi NW 8.1 mph - N/A   Clear
1:35 PM 69.8 °F 55.4 °F 60% 30.13 in 10.0 mi WNW 8.1 mph - N/A   Clear
1:55 PM 69.8 °F 55.4 °F 60% 30.13 in 10.0 mi NW 6.9 mph - N/A   Clear
2:15 PM 69.8 °F 55.4 °F 60% 30.13 in 10.0 mi NW 8.1 mph - N/A   Clear
2:35 PM 69.8 °F 57.2 °F 64% 30.13 in 10.0 mi NNW 5.8 mph - N/A   Clear
2:55 PM 69.8 °F 55.4 °F 60% 30.12 in 10.0 mi NNW 8.1 mph - N/A   Clear
3:15 PM 69.8 °F 55.4 °F 60% 30.12 in 10.0 mi North 9.2 mph - N/A   Clear
3:35 PM 69.8 °F 57.2 °F 64% 30.12 in 10.0 mi North 9.2 mph - N/A   Clear
3:55 PM 69.8 °F 57.2 °F 64% 30.11 in 10.0 mi NNE 9.2 mph - N/A   Clear
4:15 PM 69.8 °F 57.2 °F 64% 30.11 in 10.0 mi North 9.2 mph - N/A   Clear
4:35 PM 69.8 °F 57.2 °F 64% 30.10 in 10.0 mi NNE 8.1 mph - N/A   Clear
4:55 PM 69.8 °F 57.2 °F 64% 30.09 in 10.0 mi North 8.1 mph - N/A   Clear
5:15 PM 68.0 °F 55.4 °F 64% 30.09 in 10.0 mi NNE 8.1 mph - N/A   Clear
5:35 PM 68.0 °F 55.4 °F 64% 30.09 in 10.0 mi NNE 8.1 mph - N/A   Clear
5:55 PM 68.0 °F 55.4 °F 64% 30.10 in 10.0 mi NE 8.1 mph - N/A   Clear
6:15 PM 68.0 °F 55.4 °F 64% 30.11 in 10.0 mi NNE 6.9 mph - N/A   Clear
6:35 PM 68.0 °F 55.4 °F 64% 30.11 in 10.0 mi NNE 4.6 mph - N/A   Clear
6:55 PM 68.0 °F 55.4 °F 64% 30.11 in 10.0 mi NNE 4.6 mph - N/A   Clear
7:15 PM 66.2 °F 55.4 °F 68% 30.11 in 10.0 mi NE 5.8 mph - N/A   Clear
7:35 PM 64.4 °F 57.2 °F 77% 30.11 in 10.0 mi NNE 5.8 mph - N/A   Clear
7:55 PM 64.4 °F 55.4 °F 73% 30.12 in 10.0 mi NNE 5.8 mph - N/A   Clear
8:15 PM 64.4 °F 55.4 °F 73% 30.12 in 10.0 mi NNE 4.6 mph - N/A   Clear
8:35 PM 62.6 °F 55.4 °F 77% 30.12 in 10.0 mi NE 5.8 mph - N/A   Clear
8:55 PM 60.8 °F 55.4 °F 82% 30.13 in 10.0 mi NE 5.8 mph - N/A   Clear
9:15 PM 60.8 °F 55.4 °F 82% 30.13 in 10.0 mi NE 6.9 mph - N/A   Clear
9:35 PM 60.8 °F 55.4 °F 82% 30.13 in 10.0 mi NE 6.9 mph - N/A   Clear
9:55 PM 60.8 °F 55.4 °F 82% 30.13 in 10.0 mi NE 8.1 mph - N/A   Clear
10:15 PM 60.8 °F 53.6 °F 77% 30.15 in 10.0 mi NE 6.9 mph - N/A   Clear
10:35 PM 59.0 °F 53.6 °F 82% 30.16 in 10.0 mi NE 8.1 mph - N/A   Clear
10:55 PM 59.0 °F 53.6 °F 82% 30.18 in 10.0 mi ENE 5.8 mph - N/A   Clear
11:15 PM 57.2 °F 53.6 °F 88% 30.18 in 10.0 mi ENE 5.8 mph - N/A   Clear
11:35 PM 59.0 °F 53.6 °F 82% 30.18 in 10.0 mi ENE 6.9 mph - N/A   Clear
11:55 PM 57.2 °F 53.6 °F 88% 30.18 in 10.0 mi ENE 8.1 mph - N/A   Clear